Vorticity
12 10 7 7 9 9 7 11 13 7 3 5 8 8 9 8 8 8 8 8 8 8 8 8 9 8 9 9 9 8 8 9 9 9 9 9 8 8 9 8 8 9 8 7 7 8 8 9 9 8 8 8 7 7 8 8 8 8 9 8 6 9 14 7 -6 2 -0 -10 -0 4 7 12 9 7 7 8 6 6 5 7 9 7 6 4 5 8 9 10
12 10 9 8 8 9 7 7 12 15 10 5 6 8 9 9 9 8 8 8 7 8 7 8 8 8 9 8 9 9 9 9 9 8 9 9 9 9 8 8 9 9 9 9 8 8 8 9 9 10 8 7 7 7 7 8 7 8 8 6 8 8 6 -3 -8 3 -5 -12 2 5 7 8 6 9 6 4 8 9 8 10 8 6 7 6 11 14 8 6
11 10 10 9 8 8 8 8 8 12 15 12 9 8 9 10 10 9 8 8 7 8 7 8 8 8 8 8 9 9 9 10 9 9 9 9 8 9 9 9 9 9 10 9 8 9 9 9 9 9 8 8 8 7 8 9 8 8 7 6 10 8 0 1 3 3 -6 -4 7 6 5 5 4 7 3 4 8 10 11 13 10 6 7 10 11 9 5 6
11 10 9 9 9 9 8 10 9 7 11 14 14 12 10 10 11 10 9 8 8 7 7 8 8 8 8 8 8 8 10 9 9 10 10 10 9 9 9 8 9 9 9 9 9 9 9 10 9 8 7 7 8 8 8 9 10 8 8 8 8 5 2 6 5 2 4 9 10 7 6 7 4 2 6 10 10 12 9 5 12 11 12 15 10 12 13 9
11 9 9 10 8 9 8 9 10 9 9 11 13 14 12 12 11 11 11 10 9 8 7 8 8 9 8 8 8 7 9 8 9 12 12 11 11 11 10 9 9 9 9 10 11 10 11 9 7 7 6 6 7 9 8 7 8 8 8 9 8 5 6 10 9 6 9 9 9 7 5 4 3 4 9 10 9 12 5 -3 3 7 10 11 11 14 10 8
12 8 7 11 9 8 9 9 9 10 10 10 11 12 12 12 12 11 11 11 10 9 8 7 8 8 8 8 8 7 8 7 8 11 11 10 11 11 11 10 9 9 10 10 11 10 10 9 7 7 6 7 8 8 9 8 8 9 8 7 8 9 8 9 9 8 6 5 5 4 4 4 5 8 9 7 4 4 7 3 2 7 8 2 2 4 0 3
13 9 4 8 10 8 9 9 9 9 10 11 11 11 12 11 12 12 11 11 11 11 9 9 8 8 8 8 8 8 9 8 7 8 8 9 10 10 10 11 10 10 10 10 11 10 9 8 6 5 6 8 8 8 8 7 8 10 9 8 7 7 6 7 7 7 5 3 3 3 5 6 6 7 6 5 6 10 14 7 3 9 10 8 7 6 5 1
14 12 5 5 10 9 9 9 8 9 10 10 11 12 12 12 12 12 12 11 11 11 10 10 10 9 9 9 9 9 8 9 9 8 7 7 8 10 11 11 11 11 11 11 10 9 8 6 5 6 7 8 8 7 6 9 10 8 7 7 6 7 7 7 8 7 6 5 5 6 6 6 7 8 7 7 13 16 8 1 7 12 11 11 8 7 8 8
14 15 8 5 9 10 9 9 8 9 9 10 12 12 12 12 12 12 12 11 11 11 11 11 11 11 11 11 11 10 9 9 10 10 9 8 7 8 10 11 11 10 10 10 9 9 7 6 6 5 4 5 6 7 9 11 10 6 7 8 7 8 8 6 6 6 6 6 5 7 7 8 8 7 8 11 13 10 3 4 10 15 13 8 10 13 13 14
15 16 11 5 8 11 9 9 8 8 10 10 11 11 12 11 12 12 11 11 11 11 11 11 11 11 11 11 11 10 10 9 9 11 11 11 10 8 8 8 8 8 8 9 9 9 7 6 6 5 7 10 9 11 13 10 8 8 9 9 7 6 6 5 6 6 6 8 9 10 10 10 10 10 12 15 14 7 4 6 8 12 11 8 13 14 16 16
15 17 13 6 8 11 9 9 8 9 10 10 11 12 12 12 12 12 11 12 11 11 11 10 11 11 10 11 10 10 13 12 8 10 10 10 11 10 8 8 8 8 8 9 8 8 7 6 6 8 10 10 10 10 9 8 8 9 6 3 3 3 4 6 10 10 9 10 11 11 9 10 11 11 13 15 14 10 6 8 12 13 7 9 11 10 25 23
15 16 13 8 9 11 9 8 8 9 10 10 12 12 12 13 13 13 12 12 11 11 11 10 10 9 10 10 9 10 13 12 8 8 9 10 10 10 10 10 9 9 9 10 9 9 8 8 9 8 5 8 14 11 9 8 6 5 3 3 4 5 9 13 12 9 10 13 12 10 10 11 12 10 11 15 15 10 7 8 9 9 8 11 7 3 16 10
17 17 12 8 9 10 9 9 8 10 10 11 12 11 12 11 11 13 13 12 13 12 11 10 9 9 9 9 10 10 9 10 11 10 9 9 9 9 9 9 10 10 9 9 8 9 9 9 9 7 6 10 9 4 5 6 4 3 3 3 5 7 11 11 8 8 11 12 8 8 11 11 11 12 9 9 12 7 3 4 5 10 12 10 3 -1 6 8
19 18 11 7 9 10 8 8 9 10 10 10 10 10 9 9 9 10 10 11 12 12 12 11 10 9 9 8 9 9 7 7 9 9 8 8 8 7 8 8 9 9 8 8 8 8 8 8 7 7 10 10 4 3 6 3 2 3 2 4 6 9 12 10 9 7 6 11 9 6 11 15 17 23 16 4 4 7 6 8 10 15 14 8 7 4 4 9
20 18 11 8 9 10 8 9 9 9 10 9 9 9 8 7 7 7 7 8 8 10 11 12 12 11 9 8 8 8 8 8 7 7 7 7 8 7 7 7 8 8 8 8 8 7 7 7 7 7 7 5 3 5 6 2 3 3 3 6 6 7 10 13 14 7 6 13 9 3 8 13 14 20 25 15 6 4 3 3 6 13 17 11 12 10 4 6
21 17 11 9 10 9 7 8 8 8 8 8 8 8 7 6 6 6 5 4 5 6 7 9 11 11 10 11 13 10 7 7 7 7 7 7 7 7 7 8 8 8 8 8 8 8 8 8 8 8 7 5 7 7 4 1 2 1 2 6 9 11 11 14 16 13 14 15 9 7 8 9 11 12 15 10 -2 -4 -0 2 4 15 17 9 11 12 10 9
22 16 11 9 10 8 6 8 7 7 8 8 8 7 6 6 6 6 6 5 5 4 5 5 6 9 11 12 15 12 9 8 7 8 9 8 7 7 8 8 8 8 8 8 8 7 8 8 8 8 8 7 7 7 4 3 4 7 8 5 5 8 8 8 11 12 10 6 9 12 5 9 18 10 6 5 -2 -2 3 4 4 10 10 5 13 16 10 6
21 15 10 10 10 8 7 7 5 5 8 8 7 5 5 5 5 6 7 7 6 7 7 4 4 6 7 7 7 9 12 12 10 9 8 8 8 9 9 8 8 8 8 8 8 8 8 9 8 7 7 6 7 6 5 7 10 13 16 18 17 17 12 2 3 15 14 2 7 13 7 12 14 -4 -8 3 5 4 4 4 4 9 10 6 11 13 7 4
19 14 10 10 9 7 7 6 5 5 7 8 6 5 4 4 5 6 6 8 9 10 7 6 8 4 2 6 7 9 15 15 12 10 9 9 9 10 10 10 10 9 10 10 9 9 8 7 8 8 7 8 9 9 8 10 11 6 6 16 20 22 23 7 -9 -2 5 -3 -1 10 8 7 8 -1 -3 1 1 4 7 6 4 8 11 7 7 12 14 7
18 15 10 10 9 7 7 5 5 5 6 8 6 4 4 4 5 6 7 8 8 7 7 9 11 7 4 5 5 7 12 12 11 11 11 11 10 10 10 10 10 10 10 10 9 9 9 8 7 6 7 8 5 4 3 5 7 -3 -11 -7 -6 0 13 13 -1 -7 5 12 11 19 20 10 6 4 3 1 0 8 11 5 4 7 7 9 8 8 14 10
17 16 9 10 8 7 7 5 4 5 7 7 5 5 4 4 5 5 7 8 8 8 10 11 10 9 7 3 2 4 7 8 8 9 10 9 9 9 9 8 8 8 9 7 4 4 3 2 3 3 4 3 2 5 4 4 6 -7 -13 -4 -5 -8 -6 3 10 1 3 12 3 -1 4 4 5 7 7 3 3 13 14 3 1 5 6 11 13 8 9 9
16 15 9 10 7 7 7 5 5 5 6 7 6 5 3 4 5 4 5 6 8 10 10 12 11 11 9 7 7 4 2 4 4 5 6 7 8 6 5 5 4 3 3 4 2 1 4 5 6 7 9 10 7 7 7 9 9 -2 5 20 15 3 -10 -10 3 -1 -1 8 4 -0 0 3 7 7 8 7 8 17 19 9 -3 -0 8 10 10 8 7 9
14 14 10 10 7 8 7 5 6 5 7 8 6 5 3 4 5 5 6 6 8 9 9 12 13 13 12 11 11 6 4 5 4 3 4 5 5 3 3 3 3 4 3 5 6 5 11 12 12 10 6 12 11 7 11 14 10 5 15 24 18 13 1 -7 4 10 13 12 10 16 17 19 22 10 7 10 10 12 16 18 7 0 6 8 12 11 7 11
13 13 10 9 8 8 7 5 5 5 7 7 6 5 3 4 5 5 7 6 8 10 10 11 12 13 13 13 15 12 10 8 6 6 3 4 4 2 4 4 7 9 7 11 10 10 18 14 21 31 17 6 5 7 16 17 12 11 13 13 10 14 12 7 6 5 7 2 1 18 19 11 11 5 4 9 12 14 15 19 15 9 8 5 11 19 12 8
11 13 10 9 9 8 8 7 6 6 6 6 6 5 4 5 5 5 6 7 10 12 12 12 11 11 12 15 17 15 12 11 11 12 9 9 9 7 10 10 10 11 11 15 10 12 18 -2 -2 25 21 7 9 12 14 11 11 11 10 13 12 11 13 9 1 -6 3 13 16 25 25 14 9 9 14 16 16 19 16 15 17 17 18 9 3 14 18 11
11 13 12 11 11 9 8 7 7 7 5 6 6 5 5 6 4 5 6 6 10 13 13 13 12 11 11 12 13 14 14 13 12 12 12 13 12 13 15 14 14 14 10 11 9 11 17 -2 -12 2 -0 -0 11 11 10 10 11 12 10 12 13 13 11 6 6 -4 -13 2 11 -1 -7 -1 1 6 18 16 7 13 17 12 16 20 26 25 16 14 18 16
13 14 13 13 13 9 7 8 8 7 5 6 6 5 5 5 5 6 6 8 10 9 11 14 14 13 11 10 12 13 12 11 11 11 14 14 12 12 13 13 15 14 8 6 7 12 19 9 0 5 -1 2 15 7 7 13 8 12 14 14 24 31 22 15 25 15 -24 -32 -13 -9 -7 4 4 3 16 15 -2 10 26 9 1 20 31 25 13 9 8 10
14 14 13 13 12 8 7 8 7 6 5 5 5 4 5 5 6 5 7 10 9 7 8 11 14 13 11 10 11 11 9 11 12 11 13 12 9 9 8 10 10 9 8 2 -4 7 24 10 -3 14 17 9 17 12 7 9 7 13 10 -2 7 13 8 11 25 36 14 -13 -6 7 12 15 12 10 21 26 2 -3 26 21 -10 -7 7 1 1 13 7 -6
12 13 12 11 10 8 8 7 7 7 6 4 4 4 6 6 6 7 9 7 7 11 8 6 11 12 12 11 10 10 10 12 11 9 12 10 7 8 7 8 7 5 9 7 -6 -3 21 21 -3 3 12 2 3 7 4 3 4 13 9 -9 -13 -14 -4 10 11 21 21 4 7 16 12 7 4 2 7 23 18 -4 7 23 0 -15 -9 -13 -8 19 19 -3
11 13 12 10 8 8 9 7 7 7 5 4 5 7 8 9 9 9 8 6 9 16 14 9 9 8 10 12 11 11 10 10 8 5 10 13 9 9 8 7 7 4 4 11 12 -7 -8 19 16 -1 10 18 10 5 5 6 5 9 11 4 -2 -7 2 13 9 11 10 3 10 12 11 14 14 13 5 5 20 13 -2 0 2 5 9 -7 -19 -2 13 7
11 12 11 9 8 7 7 6 6 6 5 7 9 9 9 10 10 9 8 9 9 9 12 13 9 8 13 14 12 12 11 11 10 6 7 11 11 11 11 9 7 7 2 5 25 14 -19 -9 5 -7 3 20 16 11 9 8 7 7 8 8 7 6 9 13 12 15 10 5 13 16 16 19 13 15 12 0 10 23 14 1 -2 4 8 3 2 8 11 9
10 10 11 9 7 6 5 5 5 6 7 10 10 10 11 9 9 8 6 10 8 4 13 20 15 9 8 13 15 12 9 8 9 11 9 7 8 10 13 13 9 11 11 -1 6 22 8 -4 5 9 10 9 7 10 10 11 12 8 8 9 9 11 14 18 18 18 17 12 16 18 14 12 6 5 10 6 5 15 20 14 7 8 5 4 14 16 9 8
8 8 9 8 7 6 5 6 8 10 11 11 10 11 11 8 11 12 7 13 14 2 7 19 25 22 10 9 17 20 20 16 12 12 12 9 8 8 10 13 11 8 13 10 1 11 23 18 12 13 16 14 10 8 9 18 19 11 11 11 10 14 11 8 8 8 12 12 14 17 11 7 7 8 8 4 1 5 13 14 11 13 12 10 11 9 9 9
8 8 7 6 8 8 9 11 11 13 13 11 10 10 9 8 13 12 -1 6 18 6 -7 -9 1 20 19 7 9 16 19 20 18 12 10 10 9 9 7 6 10 7 4 10 9 8 16 15 2 1 15 21 17 14 11 9 9 12 19 12 9 17 9 -0 4 8 8 7 7 10 11 9 7 6 5 2 3 3 7 12 10 8 11 14 14 10 12 9
15 14 11 11 14 14 16 15 12 13 11 11 11 8 11 10 11 19 5 -3 15 22 9 -4 -6 10 19 10 1 1 6 12 19 20 15 12 8 10 13 8 8 12 7 3 2 1 5 10 7 7 15 13 9 15 13 2 2 14 24 16 7 10 6 -0 2 1 1 7 9 5 4 7 8 10 10 9 11 9 11 15 12 12 14 12 13 14 19 17
22 23 21 21 20 17 16 12 9 12 9 11 11 7 15 8 -4 14 13 -9 -2 11 10 11 11 7 11 17 4 -5 9 16 12 18 22 21 16 9 11 14 9 11 15 10 5 3 1 6 9 5 5 8 11 18 14 7 8 8 10 17 19 14 8 8 11 8 -1 -1 7 10 9 10 11 14 10 5 10 11 12 14 11 14 17 20 25 23 18 17
19 19 18 17 14 11 11 9 9 11 8 10 10 7 15 9 -5 2 2 -9 -5 5 10 14 18 15 10 17 12 -1 12 16 -2 2 14 20 23 15 12 20 16 13 15 7 7 14 7 4 5 1 3 8 8 10 9 9 12 4 -3 7 19 17 7 2 6 11 9 6 10 10 6 5 7 8 5 7 14 10 6 12 10 5 13 27 34 23 12 12
13 12 11 10 10 9 9 9 10 9 8 9 9 8 5 -2 1 5 -1 -1 0 8 20 9 9 25 12 4 20 17 15 17 3 -3 1 6 16 17 15 16 15 22 27 12 4 10 10 10 7 -1 5 10 6 6 6 6 11 10 3 4 11 11 9 8 4 3 5 8 12 12 8 5 3 -0 -1 3 6 -1 2 14 12 9 20 24 14 7 8 16
10 8 7 8 8 9 9 9 9 8 10 9 7 12 6 -6 5 12 6 9 5 7 22 3 -8 15 6 -10 12 20 12 20 19 7 -0 -0 6 11 10 9 6 11 23 24 12 2 2 11 12 4 5 8 6 8 8 6 11 13 6 3 6 1 -2 6 11 10 11 7 3 7 10 8 5 6 8 8 8 7 13 20 16 21 31 21 6 3 -1 5
9 7 8 10 9 10 9 9 10 8 9 10 5 8 10 2 9 15 9 10 8 3 12 8 -7 3 6 -9 -2 12 13 17 23 20 11 3 2 6 7 7 1 -11 -4 18 21 12 12 13 8 5 5 5 3 8 15 14 14 18 14 6 5 4 3 7 5 -0 5 11 11 10 9 5 6 9 10 10 11 9 13 23 26 28 28 18 13 13 3 3
7 4 7 10 8 9 10 7 9 8 6 9 6 3 7 7 9 13 9 9 14 6 5 12 0 -6 3 -9 -15 7 15 6 14 22 17 9 4 6 8 7 6 -3 -5 5 5 8 20 17 6 2 5 9 9 10 15 10 4 12 19 14 9 5 6 12 8 -0 2 10 12 9 5 2 0 2 7 13 16 11 5 14 24 23 20 16 8 5 5 8
5 2 10 13 7 8 10 6 7 8 6 7 6 5 10 12 10 14 13 10 15 12 7 13 7 2 11 -0 -13 -0 0 -5 9 18 17 15 7 6 9 5 5 6 4 2 -2 3 15 17 10 3 1 5 6 6 10 5 1 6 10 12 16 14 8 7 8 7 9 9 8 7 7 10 7 3 9 18 25 26 15 5 8 12 14 15 11 8 7 7
3 -1 9 14 9 8 8 7 8 9 8 7 7 10 14 12 8 11 14 12 11 11 9 11 10 10 15 12 6 4 -5 -8 3 6 10 17 11 5 5 3 4 1 -4 2 7 9 13 14 11 7 5 2 -1 1 5 3 -1 4 8 5 6 12 13 11 6 3 3 4 7 8 5 14 17 -3 -7 8 11 10 11 6 7 12 10 9 12 11 7 6
6 2 9 13 10 10 9 8 9 9 10 9 8 11 15 16 12 8 10 13 10 10 11 10 10 9 10 13 12 9 5 3 3 3 6 11 16 14 4 4 14 11 -0 2 7 8 13 15 11 7 6 6 6 8 11 9 -0 1 12 10 1 3 9 11 9 4 2 -0 1 4 -3 5 20 6 -0 22 22 6 7 10 10 12 11 11 11 9 8 9
5 5 11 15 11 10 12 12 9 8 11 11 8 9 12 16 18 11 8 12 13 12 13 12 13 12 11 13 12 9 10 8 5 8 7 4 13 22 11 2 10 18 15 6 2 3 7 11 13 9 4 4 9 10 11 10 1 -0 12 13 5 5 4 5 7 6 6 3 3 11 2 -5 13 13 -0 10 18 12 13 12 8 9 12 13 12 11 11 10
4 3 7 14 12 8 9 9 6 6 11 11 8 7 8 12 18 16 10 10 14 16 15 13 16 17 13 13 14 14 14 8 3 4 4 3 10 17 14 6 2 11 19 14 8 6 2 4 11 12 6 3 3 7 14 16 9 7 14 13 8 8 3 -2 1 7 13 16 20 23 9 -5 5 10 -1 1 9 10 10 9 8 9 9 10 12 14 14 13
8 7 9 15 15 9 6 4 3 4 7 12 12 9 7 9 14 18 17 12 11 13 12 9 11 17 18 15 13 15 15 11 10 7 2 5 11 7 6 13 13 7 9 12 11 8 3 3 8 10 8 5 -1 -3 2 8 9 7 6 8 9 11 11 3 -1 2 -1 -4 5 12 7 7 17 14 5 6 11 8 4 5 10 11 10 11 11 11 13 13
5 6 9 12 12 10 6 6 9 7 2 8 14 12 11 10 10 15 19 14 9 12 17 15 9 9 15 17 15 15 15 14 16 16 8 5 12 8 -1 9 21 16 11 14 14 13 10 4 3 8 12 11 7 3 -3 -3 7 10 5 8 10 6 7 5 3 14 15 -3 -7 1 4 9 15 10 1 -1 8 17 16 11 10 9 9 9 8 9 10 11
4 5 10 11 9 10 10 8 10 10 7 8 12 13 11 9 9 12 15 14 9 9 13 14 11 7 8 16 19 14 13 14 14 18 16 6 6 6 -4 -2 13 15 12 13 11 14 17 11 4 5 10 11 10 16 18 9 13 26 19 10 8 5 9 12 7 17 32 25 11 11 11 6 1 1 2 2 6 13 16 13 9 6 5 5 5 6 8 9
5 6 7 8 6 8 11 9 7 10 15 13 10 12 11 8 10 10 10 13 13 12 11 10 11 10 7 12 16 13 13 14 9 10 14 11 6 2 -6 -3 8 11 10 12 12 11 14 15 11 5 7 9 2 5 13 -0 -3 24 32 12 3 6 11 11 1 -3 8 13 9 8 8 5 2 2 6 8 6 3 5 10 9 6 5 6 6 7 6 8
8 9 8 9 10 8 7 11 11 11 16 14 8 8 8 7 11 11 7 8 10 12 15 13 9 10 12 15 14 9 10 13 10 6 8 12 15 9 -0 -1 4 5 7 11 13 12 11 12 11 6 6 13 11 6 6 -3 -10 9 27 21 9 7 8 4 1 0 0 2 7 11 11 9 11 13 15 15 13 7 6 9 10 9 8 7 7 7 5 5
3 7 8 8 11 11 9 12 12 9 13 13 8 8 8 7 10 11 10 10 9 9 12 14 11 10 12 16 13 6 8 13 14 13 10 10 15 14 9 6 5 5 6 9 10 12 12 12 12 10 7 10 15 12 8 10 2 -8 2 18 16 11 13 13 13 14 9 4 6 10 13 12 11 12 12 10 10 11 11 12 12 11 10 9 9 8 6 6
Height
5725 5726 5728 5729 5731 5732 5733 5735 5736 5738 5740 5741 5743 5744 5745 5747 5748 5750 5751 5753 5755 5756 5758 5760 5762 5764 5765 5767 5768 5770 5772 5774 5776 5778 5780 5781 5783 5784 5785 5787 5788 5789 5791 5792 5794 5795 5797 5798 5799 5801 5802 5803 5804 5806 5807 5808 5809 5811 5812 5813 5815 5817 5817 5818 5818 5818 5818 5816 5815 5816 5821 5824 5824 5823 5822 5823 5825 5825 5825 5824 5823 5823 5821 5820 5822 5821 5822 5823
5720 5721 5722 5724 5725 5727 5728 5730 5731 5733 5735 5737 5738 5740 5741 5743 5744 5746 5747 5749 5751 5752 5754 5756 5758 5760 5762 5763 5765 5767 5768 5770 5772 5775 5776 5777 5779 5780 5782 5783 5784 5786 5787 5789 5790 5792 5793 5794 5796 5797 5799 5800 5801 5803 5804 5805 5807 5808 5810 5811 5813 5813 5814 5813 5814 5814 5814 5816 5815 5814 5819 5821 5822 5822 5819 5820 5822 5821 5823 5822 5819 5819 5818 5818 5819 5819 5821 5822
5714 5716 5717 5719 5720 5722 5723 5725 5727 5728 5730 5732 5733 5735 5737 5738 5740 5742 5743 5745 5747 5749 5751 5753 5754 5756 5758 5759 5761 5763 5765 5767 5769 5771 5772 5774 5775 5777 5778 5779 5781 5782 5784 5785 5787 5789 5790 5791 5793 5794 5796 5797 5799 5801 5802 5803 5805 5806 5807 5809 5810 5810 5809 5810 5811 5811 5811 5814 5815 5814 5815 5817 5820 5818 5815 5818 5820 5819 5820 5819 5815 5816 5817 5817 5818 5819 5821 5821
5709 5711 5712 5713 5715 5717 5719 5720 5722 5724 5726 5727 5729 5731 5732 5734 5736 5737 5739 5741 5743 5744 5747 5749 5751 5753 5754 5756 5758 5760 5762 5763 5766 5768 5769 5770 5772 5773 5775 5776 5777 5779 5780 5782 5784 5785 5787 5789 5790 5791 5793 5794 5796 5798 5799 5801 5802 5803 5805 5806 5806 5807 5806 5807 5809 5809 5810 5813 5813 5812 5812 5814 5816 5814 5814 5817 5817 5817 5817 5814 5811 5814 5815 5815 5816 5817 5819 5820
5704 5705 5707 5708 5710 5712 5714 5715 5717 5719 5721 5723 5724 5726 5728 5730 5731 5733 5735 5737 5739 5740 5743 5745 5747 5749 5751 5753 5754 5756 5758 5759 5763 5765 5765 5767 5769 5770 5771 5773 5774 5776 5777 5779 5781 5782 5784 5786 5787 5789 5790 5792 5793 5795 5796 5798 5799 5800 5802 5803 5803 5804 5804 5805 5806 5807 5810 5811 5810 5810 5810 5811 5811 5811 5814 5815 5814 5814 5813 5810 5809 5812 5812 5813 5814 5815 5816 5817
5698 5700 5702 5703 5705 5707 5709 5711 5713 5715 5717 5718 5720 5722 5724 5725 5727 5729 5731 5733 5735 5736 5739 5740 5743 5745 5747 5749 5751 5753 5755 5756 5760 5762 5762 5764 5765 5766 5768 5769 5771 5773 5774 5776 5778 5779 5781 5783 5784 5786 5787 5789 5791 5792 5794 5795 5796 5798 5799 5800 5800 5801 5802 5803 5803 5805 5808 5808 5808 5807 5807 5808 5808 5809 5811 5811 5811 5811 5811 5807 5806 5810 5810 5811 5812 5813 5815 5814
5693 5695 5697 5699 5701 5702 5705 5707 5709 5710 5712 5714 5716 5718 5719 5721 5723 5725 5727 5729 5730 5732 5734 5736 5739 5741 5743 5746 5747 5750 5751 5753 5757 5759 5759 5761 5762 5763 5765 5766 5768 5770 5771 5773 5775 5776 5778 5780 5781 5783 5785 5787 5788 5790 5791 5792 5794 5795 5796 5798 5798 5798 5800 5801 5801 5802 5804 5805 5805 5805 5805 5806 5806 5807 5807 5807 5808 5810 5810 5803 5801 5808 5809 5808 5809 5810 5811 5810
5688 5690 5692 5694 5696 5698 5700 5702 5704 5706 5708 5710 5711 5713 5715 5717 5719 5721 5723 5725 5727 5729 5730 5732 5735 5737 5739 5741 5743 5746 5747 5750 5754 5755 5755 5758 5759 5761 5762 5764 5765 5767 5769 5770 5772 5773 5775 5777 5779 5781 5783 5784 5785 5787 5788 5790 5791 5793 5794 5795 5795 5796 5797 5798 5798 5799 5801 5801 5802 5802 5803 5803 5803 5804 5804 5803 5805 5808 5806 5799 5799 5805 5806 5806 5806 5805 5805 5806
5683 5685 5687 5690 5692 5694 5696 5698 5700 5702 5704 5706 5707 5710 5711 5713 5715 5717 5719 5721 5723 5725 5727 5729 5731 5733 5736 5738 5740 5742 5743 5747 5750 5751 5753 5754 5756 5758 5759 5761 5763 5764 5766 5767 5769 5771 5773 5775 5777 5778 5780 5781 5782 5784 5786 5788 5789 5790 5791 5792 5793 5794 5795 5795 5796 5797 5797 5798 5799 5799 5800 5800 5800 5800 5801 5802 5803 5804 5801 5799 5799 5800 5801 5802 5801 5801 5801 5804
5678 5680 5683 5685 5687 5689 5692 5694 5696 5698 5700 5702 5704 5706 5708 5710 5711 5713 5715 5717 5719 5721 5723 5725 5727 5730 5732 5734 5737 5738 5741 5745 5746 5748 5750 5751 5753 5755 5756 5758 5760 5761 5763 5765 5767 5769 5770 5772 5774 5776 5777 5779 5780 5782 5784 5785 5786 5787 5789 5790 5791 5791 5792 5793 5794 5794 5795 5795 5796 5796 5796 5797 5797 5797 5798 5800 5801 5800 5797 5798 5799 5797 5798 5798 5797 5798 5800 5802
5672 5675 5678 5680 5683 5685 5687 5690 5692 5694 5696 5698 5700 5702 5705 5706 5708 5710 5712 5714 5716 5718 5720 5722 5724 5726 5728 5731 5733 5734 5739 5742 5742 5745 5747 5748 5750 5752 5754 5755 5757 5759 5760 5762 5764 5766 5768 5770 5772 5774 5775 5776 5777 5780 5782 5783 5783 5785 5786 5787 5788 5789 5790 5790 5791 5791 5791 5792 5793 5793 5793 5793 5794 5794 5796 5797 5797 5795 5793 5796 5796 5795 5796 5796 5795 5797 5798 5799
5667 5670 5673 5676 5679 5681 5683 5686 5688 5690 5692 5694 5697 5699 5701 5703 5705 5707 5709 5711 5713 5715 5717 5719 5721 5723 5726 5728 5729 5732 5737 5738 5739 5742 5744 5745 5747 5749 5751 5753 5754 5756 5758 5760 5761 5763 5765 5767 5770 5771 5771 5773 5776 5777 5778 5780 5781 5783 5784 5785 5786 5786 5787 5788 5788 5788 5788 5789 5790 5789 5790 5791 5792 5792 5793 5794 5794 5791 5789 5793 5793 5793 5795 5794 5793 5795 5796 5796
5662 5665 5668 5671 5674 5677 5680 5682 5684 5686 5688 5691 5693 5696 5698 5700 5702 5704 5706 5708 5710 5712 5714 5716 5718 5721 5723 5724 5726 5730 5733 5734 5736 5739 5741 5743 5744 5746 5748 5750 5752 5753 5755 5757 5759 5761 5763 5765 5767 5767 5769 5772 5773 5773 5776 5778 5779 5780 5781 5782 5783 5783 5784 5785 5785 5785 5786 5787 5786 5786 5787 5789 5789 5790 5790 5791 5792 5789 5786 5790 5791 5791 5794 5792 5791 5793 5793 5794
5657 5660 5664 5667 5670 5673 5676 5678 5681 5683 5685 5687 5690 5693 5695 5697 5699 5701 5703 5705 5707 5709 5711 5713 5716 5718 5720 5721 5724 5727 5729 5731 5734 5736 5738 5740 5742 5744 5745 5747 5749 5751 5753 5755 5756 5758 5760 5762 5763 5764 5767 5769 5769 5771 5774 5775 5776 5778 5779 5780 5781 5781 5782 5782 5782 5783 5784 5784 5783 5784 5786 5787 5787 5786 5786 5787 5790 5787 5784 5788 5790 5789 5791 5790 5789 5790 5791 5792
5652 5656 5659 5662 5666 5669 5672 5675 5677 5679 5682 5684 5687 5689 5692 5694 5696 5698 5700 5702 5704 5706 5709 5711 5713 5715 5717 5719 5721 5724 5726 5728 5730 5732 5735 5737 5739 5741 5743 5745 5747 5748 5750 5752 5754 5755 5757 5759 5761 5762 5765 5766 5767 5770 5772 5773 5774 5776 5777 5778 5779 5780 5780 5780 5779 5779 5782 5781 5779 5782 5784 5785 5786 5785 5784 5784 5785 5784 5783 5787 5788 5787 5788 5788 5787 5788 5789 5790
5648 5651 5655 5658 5662 5665 5668 5671 5674 5676 5679 5681 5684 5686 5689 5691 5693 5696 5698 5700 5702 5704 5706 5708 5710 5713 5714 5717 5719 5721 5723 5725 5727 5730 5732 5734 5737 5738 5740 5743 5744 5746 5748 5749 5751 5753 5754 5756 5758 5760 5762 5763 5765 5768 5769 5770 5772 5774 5775 5776 5777 5778 5779 5779 5776 5776 5780 5778 5776 5780 5782 5783 5784 5785 5786 5784 5781 5780 5781 5785 5787 5786 5785 5785 5785 5786 5787 5789
5644 5647 5651 5654 5658 5661 5665 5668 5670 5673 5676 5678 5681 5683 5686 5689 5691 5693 5695 5697 5699 5701 5704 5706 5708 5710 5712 5715 5717 5717 5719 5722 5724 5727 5729 5732 5734 5736 5739 5740 5742 5744 5745 5747 5748 5750 5752 5753 5755 5757 5759 5761 5763 5765 5767 5768 5770 5772 5773 5774 5775 5776 5778 5780 5777 5774 5776 5775 5775 5777 5778 5781 5782 5784 5786 5782 5778 5779 5780 5782 5784 5784 5783 5782 5783 5785 5785 5786
5639 5643 5647 5650 5654 5658 5661 5664 5667 5670 5673 5675 5678 5680 5683 5686 5688 5690 5692 5694 5696 5699 5701 5703 5706 5708 5709 5711 5712 5714 5717 5720 5722 5724 5727 5729 5731 5734 5736 5738 5739 5741 5743 5744 5746 5747 5749 5751 5753 5755 5757 5758 5761 5763 5765 5767 5769 5770 5771 5772 5773 5774 5776 5779 5779 5774 5772 5772 5774 5776 5775 5778 5781 5781 5783 5780 5777 5777 5778 5780 5781 5781 5781 5781 5781 5783 5784 5784
5635 5639 5643 5646 5650 5654 5658 5661 5664 5667 5670 5672 5675 5678 5680 5683 5685 5687 5689 5692 5694 5696 5697 5700 5703 5705 5706 5709 5710 5712 5716 5718 5719 5722 5724 5727 5729 5731 5734 5735 5737 5738 5740 5742 5743 5745 5746 5748 5750 5752 5754 5756 5759 5761 5763 5765 5766 5769 5772 5771 5771 5772 5774 5777 5777 5773 5771 5769 5770 5773 5774 5775 5778 5779 5780 5779 5777 5775 5774 5776 5778 5778 5778 5779 5779 5780 5782 5782
5631 5636 5639 5643 5647 5651 5655 5658 5661 5664 5667 5670 5672 5675 5677 5680 5682 5684 5687 5689 5691 5693 5694 5698 5701 5701 5704 5707 5707 5710 5714 5715 5716 5719 5721 5724 5726 5729 5731 5733 5734 5736 5738 5739 5740 5742 5744 5745 5748 5750 5752 5754 5757 5758 5760 5761 5764 5765 5766 5767 5768 5770 5773 5776 5776 5773 5771 5768 5768 5771 5772 5771 5774 5776 5777 5776 5776 5776 5774 5771 5773 5775 5775 5777 5777 5778 5780 5780
5628 5632 5636 5640 5644 5648 5651 5655 5658 5661 5664 5667 5670 5672 5675 5678 5679 5682 5685 5686 5688 5690 5692 5695 5697 5698 5700 5702 5704 5708 5712 5712 5713 5716 5719 5722 5724 5726 5728 5730 5732 5734 5736 5736 5737 5739 5741 5743 5745 5748 5750 5751 5753 5754 5756 5758 5760 5759 5759 5762 5765 5767 5770 5773 5774 5773 5768 5764 5766 5769 5770 5769 5770 5772 5773 5773 5773 5776 5776 5770 5768 5772 5773 5773 5774 5775 5776 5777
5625 5629 5633 5637 5641 5645 5648 5652 5655 5658 5661 5664 5667 5669 5672 5675 5677 5680 5682 5684 5686 5688 5689 5692 5694 5695 5696 5698 5702 5707 5708 5709 5711 5713 5717 5719 5721 5723 5725 5728 5730 5732 5733 5732 5733 5736 5739 5741 5743 5746 5747 5748 5749 5750 5752 5755 5756 5755 5756 5761 5762 5763 5766 5768 5770 5771 5767 5762 5761 5763 5765 5767 5768 5768 5769 5770 5771 5773 5775 5772 5766 5767 5771 5770 5770 5771 5771 5773
5622 5626 5630 5634 5638 5642 5645 5649 5652 5656 5659 5662 5664 5667 5670 5673 5675 5677 5679 5681 5683 5685 5686 5689 5691 5692 5693 5695 5699 5703 5705 5707 5708 5710 5714 5717 5718 5720 5722 5725 5728 5729 5729 5729 5731 5734 5737 5739 5741 5742 5742 5744 5745 5746 5748 5751 5752 5752 5754 5758 5759 5760 5762 5764 5766 5768 5767 5762 5757 5759 5762 5763 5765 5766 5766 5767 5769 5769 5770 5771 5766 5764 5767 5767 5767 5767 5767 5768
5619 5624 5627 5631 5635 5639 5642 5646 5650 5653 5656 5659 5662 5665 5668 5670 5672 5675 5677 5679 5681 5683 5684 5686 5688 5689 5690 5692 5696 5700 5702 5703 5705 5706 5711 5714 5715 5717 5719 5723 5725 5725 5726 5727 5729 5732 5734 5737 5737 5737 5739 5740 5741 5743 5745 5748 5749 5750 5753 5755 5756 5758 5759 5762 5765 5766 5764 5760 5755 5756 5760 5761 5762 5764 5764 5765 5766 5765 5766 5768 5767 5763 5763 5765 5765 5764 5763 5763
5617 5621 5624 5628 5632 5636 5640 5644 5647 5650 5653 5656 5660 5663 5665 5668 5670 5672 5674 5676 5678 5680 5682 5683 5685 5686 5688 5691 5693 5696 5698 5700 5702 5703 5708 5710 5711 5714 5717 5720 5721 5721 5723 5726 5727 5729 5732 5734 5733 5733 5736 5737 5738 5741 5743 5745 5747 5748 5750 5751 5753 5755 5756 5757 5760 5761 5761 5759 5757 5757 5757 5758 5759 5760 5762 5762 5762 5762 5762 5763 5764 5764 5762 5762 5762 5762 5760 5759
5615 5618 5622 5626 5630 5633 5637 5641 5644 5648 5651 5654 5657 5660 5663 5665 5667 5669 5672 5674 5675 5677 5679 5681 5682 5683 5686 5688 5690 5693 5695 5698 5700 5700 5704 5707 5708 5711 5714 5716 5718 5720 5722 5723 5724 5726 5729 5730 5729 5730 5733 5733 5736 5739 5740 5742 5744 5745 5747 5749 5750 5751 5751 5753 5755 5755 5756 5757 5757 5757 5756 5755 5757 5758 5759 5761 5761 5762 5762 5761 5761 5761 5761 5760 5761 5761 5759 5757
5612 5616 5619 5623 5627 5631 5635 5638 5642 5645 5648 5652 5655 5658 5661 5663 5665 5667 5669 5672 5673 5674 5677 5678 5680 5682 5684 5686 5688 5691 5692 5695 5697 5697 5702 5705 5705 5708 5711 5712 5716 5718 5719 5720 5721 5723 5727 5728 5726 5727 5730 5731 5734 5737 5738 5740 5741 5743 5745 5746 5747 5747 5749 5751 5752 5752 5752 5752 5753 5753 5753 5753 5753 5755 5757 5759 5759 5761 5763 5762 5760 5758 5759 5760 5758 5757 5758 5757
5610 5613 5617 5621 5625 5629 5633 5636 5639 5643 5647 5650 5653 5656 5658 5660 5663 5665 5667 5670 5670 5671 5674 5677 5678 5680 5682 5684 5686 5688 5689 5693 5696 5696 5700 5702 5702 5705 5708 5710 5713 5715 5717 5717 5719 5721 5725 5726 5724 5725 5728 5730 5732 5734 5736 5736 5738 5742 5743 5743 5744 5744 5745 5748 5748 5748 5749 5749 5748 5750 5751 5751 5751 5753 5754 5755 5756 5758 5758 5757 5756 5755 5755 5755 5755 5754 5755 5755
5608 5611 5615 5619 5623 5627 5631 5634 5637 5641 5645 5648 5651 5654 5656 5658 5661 5663 5665 5667 5668 5669 5673 5676 5677 5678 5680 5682 5684 5686 5688 5692 5693 5693 5696 5699 5700 5702 5706 5708 5710 5713 5714 5714 5717 5721 5723 5723 5723 5723 5725 5728 5730 5731 5733 5733 5736 5740 5739 5738 5740 5740 5742 5743 5743 5745 5746 5745 5745 5747 5749 5749 5749 5750 5752 5752 5753 5753 5751 5751 5752 5752 5751 5752 5754 5755 5755 5754
5607 5610 5614 5618 5621 5625 5628 5632 5636 5639 5642 5646 5649 5651 5654 5656 5659 5661 5663 5665 5667 5668 5670 5674 5675 5676 5678 5680 5682 5684 5687 5689 5689 5690 5695 5697 5697 5700 5704 5705 5706 5709 5711 5711 5715 5719 5720 5720 5720 5721 5723 5726 5727 5728 5730 5731 5733 5736 5736 5735 5737 5738 5739 5740 5740 5742 5742 5741 5742 5746 5747 5746 5746 5747 5750 5749 5747 5747 5746 5747 5749 5751 5751 5751 5753 5754 5753 5753
5605 5609 5613 5616 5620 5623 5627 5631 5634 5638 5641 5644 5647 5649 5652 5654 5657 5660 5662 5663 5666 5666 5668 5671 5673 5674 5677 5679 5680 5682 5685 5686 5687 5690 5693 5695 5695 5698 5701 5702 5703 5706 5709 5710 5712 5715 5717 5716 5717 5720 5721 5723 5725 5726 5727 5729 5730 5732 5733 5734 5735 5735 5736 5737 5738 5738 5738 5738 5741 5744 5745 5745 5743 5744 5746 5742 5740 5743 5744 5744 5746 5748 5749 5749 5750 5751 5750 5750
5604 5607 5611 5615 5619 5622 5625 5629 5632 5636 5638 5642 5644 5647 5650 5652 5655 5658 5660 5663 5665 5665 5667 5669 5670 5673 5675 5677 5678 5680 5682 5684 5686 5689 5691 5692 5694 5696 5699 5700 5702 5705 5707 5709 5710 5713 5714 5714 5715 5717 5719 5721 5722 5724 5725 5726 5727 5729 5730 5731 5732 5734 5734 5735 5735 5735 5735 5736 5739 5741 5742 5742 5741 5741 5739 5735 5736 5741 5743 5742 5743 5744 5745 5745 5746 5747 5747 5745
5602 5606 5610 5614 5617 5620 5624 5627 5630 5633 5636 5639 5642 5645 5648 5650 5654 5657 5659 5662 5663 5663 5666 5668 5668 5671 5673 5676 5677 5678 5680 5682 5683 5686 5688 5690 5692 5694 5697 5699 5700 5702 5706 5707 5710 5711 5711 5713 5714 5715 5717 5719 5720 5722 5723 5724 5724 5726 5727 5729 5730 5731 5733 5734 5734 5733 5734 5734 5736 5738 5738 5739 5738 5736 5733 5732 5735 5739 5740 5741 5741 5741 5742 5742 5743 5744 5744 5743
5601 5605 5609 5612 5615 5619 5622 5625 5628 5631 5634 5637 5640 5643 5646 5649 5653 5656 5658 5661 5661 5661 5664 5666 5667 5670 5672 5675 5677 5678 5679 5680 5681 5684 5686 5688 5690 5692 5694 5696 5697 5700 5704 5705 5707 5709 5709 5710 5712 5713 5714 5716 5717 5719 5721 5723 5723 5723 5724 5726 5727 5729 5731 5732 5732 5731 5731 5732 5733 5734 5735 5735 5735 5732 5731 5733 5735 5736 5737 5738 5738 5738 5739 5739 5740 5741 5742 5741
5600 5604 5607 5611 5614 5617 5620 5624 5627 5630 5633 5636 5639 5642 5645 5649 5653 5656 5658 5660 5659 5659 5662 5663 5666 5669 5671 5673 5676 5678 5679 5680 5680 5682 5684 5686 5688 5690 5692 5695 5696 5698 5702 5703 5704 5706 5707 5708 5710 5711 5712 5713 5715 5717 5718 5720 5722 5722 5722 5723 5724 5726 5728 5729 5729 5729 5728 5729 5730 5732 5732 5732 5731 5730 5731 5732 5734 5734 5735 5735 5735 5735 5735 5735 5737 5737 5738 5737
5600 5603 5606 5610 5613 5616 5619 5623 5626 5629 5632 5635 5637 5641 5644 5648 5651 5652 5654 5656 5655 5657 5659 5662 5665 5668 5670 5672 5675 5677 5678 5679 5679 5680 5682 5684 5686 5688 5690 5693 5695 5697 5699 5702 5702 5703 5704 5706 5708 5709 5710 5710 5712 5715 5715 5716 5720 5721 5720 5721 5722 5725 5726 5726 5726 5727 5726 5727 5728 5730 5730 5730 5729 5728 5729 5730 5731 5731 5732 5732 5732 5732 5731 5731 5732 5733 5734 5734
5599 5602 5606 5609 5612 5615 5619 5622 5625 5628 5631 5633 5637 5640 5643 5646 5647 5647 5649 5651 5653 5655 5658 5661 5664 5667 5669 5671 5674 5675 5675 5676 5678 5679 5681 5683 5685 5687 5689 5691 5692 5694 5697 5699 5701 5701 5702 5703 5705 5706 5707 5708 5710 5712 5713 5714 5717 5718 5718 5720 5721 5722 5724 5724 5724 5724 5724 5725 5726 5728 5729 5727 5724 5724 5726 5728 5729 5729 5730 5730 5730 5729 5728 5728 5729 5730 5731 5731
5599 5602 5606 5609 5612 5615 5618 5621 5624 5627 5630 5633 5636 5639 5641 5643 5643 5644 5647 5649 5652 5654 5657 5660 5663 5664 5668 5672 5674 5674 5673 5674 5676 5677 5680 5682 5684 5686 5688 5690 5691 5692 5694 5696 5698 5699 5699 5700 5703 5704 5705 5707 5708 5709 5711 5712 5714 5716 5717 5718 5719 5720 5721 5721 5721 5722 5722 5723 5724 5726 5727 5724 5720 5720 5723 5726 5728 5728 5728 5728 5727 5726 5725 5724 5725 5726 5727 5726
5600 5603 5607 5609 5612 5615 5618 5621 5623 5626 5629 5632 5635 5638 5640 5640 5640 5643 5647 5649 5651 5654 5656 5658 5660 5662 5665 5669 5673 5673 5671 5672 5673 5676 5678 5680 5681 5683 5685 5687 5688 5690 5693 5694 5695 5695 5696 5698 5701 5702 5704 5705 5705 5706 5708 5710 5712 5714 5715 5716 5717 5718 5719 5719 5719 5719 5720 5721 5722 5724 5724 5721 5718 5719 5721 5723 5725 5726 5726 5724 5723 5722 5721 5721 5722 5723 5723 5723
5600 5603 5607 5610 5612 5615 5617 5620 5623 5625 5628 5631 5633 5636 5638 5638 5639 5642 5645 5647 5648 5651 5653 5655 5656 5659 5662 5665 5669 5669 5669 5669 5671 5673 5675 5676 5678 5680 5681 5683 5684 5686 5690 5692 5694 5695 5694 5696 5698 5699 5701 5703 5703 5704 5707 5709 5711 5712 5713 5714 5715 5716 5717 5717 5717 5717 5718 5719 5720 5721 5720 5718 5718 5719 5719 5719 5720 5721 5722 5721 5720 5719 5719 5719 5720 5721 5722 5723
5600 5603 5606 5609 5612 5615 5617 5619 5622 5625 5627 5630 5632 5633 5634 5636 5638 5641 5643 5644 5646 5648 5650 5652 5654 5656 5659 5662 5664 5665 5665 5667 5668 5670 5672 5673 5676 5677 5678 5680 5682 5683 5685 5687 5691 5692 5691 5692 5695 5697 5698 5700 5702 5703 5705 5707 5709 5710 5710 5711 5713 5714 5715 5715 5715 5715 5716 5717 5718 5718 5716 5716 5717 5718 5717 5716 5716 5717 5718 5718 5719 5719 5719 5719 5720 5721 5722 5723
5600 5603 5606 5609 5611 5614 5617 5619 5621 5624 5626 5628 5630 5631 5633 5635 5636 5638 5640 5642 5644 5646 5648 5650 5651 5653 5656 5658 5660 5661 5662 5665 5666 5667 5668 5670 5672 5674 5676 5678 5680 5680 5681 5683 5685 5686 5687 5689 5692 5694 5696 5698 5700 5700 5701 5703 5705 5707 5708 5710 5712 5712 5713 5713 5713 5713 5713 5713 5715 5715 5713 5713 5715 5716 5717 5716 5715 5715 5715 5716 5717 5718 5718 5719 5720 5720 5721 5722
5600 5603 5605 5608 5611 5613 5616 5618 5620 5623 5625 5626 5628 5629 5631 5633 5634 5636 5638 5640 5642 5643 5645 5647 5649 5651 5653 5655 5656 5658 5660 5662 5664 5664 5665 5666 5668 5671 5674 5676 5677 5678 5679 5680 5681 5682 5685 5687 5689 5692 5693 5695 5696 5697 5698 5700 5701 5702 5704 5706 5707 5706 5707 5709 5710 5709 5709 5710 5711 5711 5711 5711 5712 5713 5714 5714 5715 5714 5713 5713 5715 5716 5717 5717 5718 5718 5719 5720
5601 5604 5605 5608 5610 5613 5615 5617 5619 5621 5623 5625 5627 5628 5629 5631 5632 5634 5636 5638 5639 5640 5642 5645 5646 5648 5650 5652 5654 5656 5658 5660 5662 5662 5662 5664 5666 5669 5671 5673 5674 5675 5676 5677 5679 5681 5684 5685 5686 5688 5690 5691 5693 5694 5695 5697 5698 5699 5700 5700 5700 5699 5700 5703 5704 5703 5705 5708 5709 5709 5710 5709 5710 5711 5711 5712 5714 5714 5712 5712 5713 5715 5715 5716 5716 5717 5717 5718
5600 5603 5604 5607 5610 5612 5614 5616 5618 5620 5622 5624 5625 5627 5628 5629 5631 5632 5634 5635 5637 5638 5640 5642 5643 5645 5648 5650 5652 5653 5655 5657 5660 5660 5661 5662 5663 5666 5668 5670 5671 5672 5673 5675 5677 5679 5681 5681 5683 5686 5687 5688 5689 5690 5692 5694 5695 5697 5697 5698 5698 5698 5698 5700 5701 5701 5703 5705 5706 5706 5707 5708 5709 5710 5710 5711 5712 5712 5712 5712 5713 5713 5714 5714 5714 5715 5716 5716
5600 5602 5604 5606 5609 5612 5613 5615 5618 5619 5621 5622 5624 5625 5627 5628 5629 5631 5632 5633 5635 5637 5638 5640 5641 5643 5645 5647 5649 5651 5653 5655 5657 5658 5659 5659 5661 5664 5665 5667 5668 5669 5671 5672 5674 5676 5677 5679 5681 5683 5684 5685 5686 5687 5689 5691 5692 5693 5695 5696 5697 5697 5697 5698 5700 5700 5701 5702 5702 5702 5704 5706 5707 5708 5709 5710 5710 5710 5711 5711 5711 5712 5712 5712 5713 5713 5714 5714
5600 5602 5604 5606 5609 5611 5613 5615 5617 5619 5620 5621 5623 5624 5626 5627 5628 5629 5630 5632 5633 5635 5636 5637 5639 5641 5642 5644 5646 5648 5650 5652 5654 5656 5656 5657 5659 5661 5662 5664 5665 5667 5668 5670 5671 5673 5675 5677 5679 5680 5681 5682 5683 5685 5686 5688 5689 5691 5692 5692 5693 5694 5695 5696 5698 5698 5699 5700 5700 5700 5702 5704 5704 5705 5707 5708 5708 5709 5709 5709 5710 5710 5710 5711 5711 5712 5712 5712
5600 5602 5603 5606 5608 5611 5612 5614 5616 5617 5619 5620 5622 5623 5624 5626 5627 5628 5629 5630 5631 5633 5634 5635 5637 5639 5640 5642 5644 5646 5648 5650 5651 5653 5654 5655 5656 5658 5660 5661 5663 5664 5666 5667 5669 5671 5673 5675 5676 5677 5678 5680 5681 5683 5684 5685 5687 5688 5688 5688 5689 5691 5692 5693 5695 5695 5696 5698 5699 5699 5700 5701 5702 5703 5705 5706 5707 5707 5708 5708 5708 5708 5709 5709 5710 5710 5710 5710
5599 5602 5603 5605 5608 5610 5611 5613 5615 5616 5618 5619 5621 5622 5623 5625 5626 5626 5627 5629 5630 5631 5632 5634 5635 5637 5638 5640 5641 5643 5645 5647 5648 5650 5651 5653 5654 5655 5656 5658 5660 5662 5663 5665 5667 5669 5671 5672 5673 5674 5676 5677 5679 5680 5682 5683 5684 5684 5684 5685 5686 5688 5689 5691 5692 5692 5694 5696 5697 5697 5698 5699 5700 5701 5702 5704 5705 5706 5706 5706 5707 5707 5707 5708 5708 5708 5709 5709
5599 5601 5603 5605 5607 5609 5610 5612 5614 5615 5617 5618 5619 5621 5622 5623 5624 5625 5626 5628 5629 5630 5631 5632 5634 5635 5636 5637 5639 5641 5642 5644 5646 5648 5650 5651 5651 5652 5654 5656 5658 5660 5661 5663 5665 5666 5667 5668 5670 5671 5673 5675 5676 5678 5679 5680 5680 5680 5680 5682 5684 5684 5685 5687 5689 5690 5691 5693 5694 5694 5695 5696 5698 5699 5701 5702 5703 5704 5704 5705 5705 5705 5705 5706 5706 5707 5707 5707
5599 5600 5603 5605 5607 5608 5610 5611 5613 5615 5616 5617 5619 5620 5621 5622 5623 5624 5625 5626 5627 5628 5629 5630 5631 5633 5634 5636 5637 5638 5640 5641 5643 5645 5647 5648 5649 5650 5653 5655 5656 5658 5659 5661 5662 5663 5664 5665 5667 5668 5670 5672 5674 5675 5676 5677 5677 5677 5678 5680 5680 5680 5681 5684 5686 5687 5689 5690 5691 5691 5692 5694 5695 5697 5698 5699 5700 5701 5702 5702 5703 5703 5704 5704 5704 5704 5705 5705
5598 5599 5602 5604 5606 5608 5609 5611 5613 5614 5615 5616 5618 5619 5620 5621 5622 5623 5624 5625 5626 5627 5628 5629 5630 5631 5632 5633 5634 5635 5637 5640 5641 5643 5644 5646 5647 5649 5651 5653 5654 5656 5657 5658 5659 5660 5662 5663 5664 5666 5668 5669 5670 5672 5673 5673 5674 5675 5676 5677 5677 5677 5678 5681 5683 5684 5685 5686 5687 5688 5689 5691 5693 5693 5695 5696 5697 5698 5699 5700 5700 5701 5702 5702 5702 5702 5702 5703